Regional Weather Roundup
Issued by NWS Mt. Holly, NJ

Home | Current Version | Previous Version | Text Only | Print | Product List | Glossary On
Versions: 1 2 3 4 5 6 7 8 9 10 11 12 13 14 15 16 17 18 19 20 21 22 23 24 25 26 27 28 29 30 31 32 33 34 35 36 37 38 39 40 41 42 43 44 45 46 47 48 49 50
626
ASUS41 KPHI 291711
RWRPHI

REGIONAL WEATHER ROUNDUP
NATIONAL WEATHER SERVICE MOUNT HOLLY NJ
100 PM EDT SAT APR 29 2017

NOTE:  "FAIR" INDICATES FEW OR NO CLOUDS BELOW 12,000 FEET WITH NO
SIGNIFICANT WEATHER AND/OR OBSTRUCTIONS TO VISIBILITY.

 * = STATION DOES NOT REPORT PRECIPITATION (E.G. RAIN, SNOW, ETC.)
        OR FOG.

NJZ015>026-291800-
SOUTHERN NEW JERSEY

CITY           SKY/WX    TMP DP  RH WIND       PRES   REMARKS
POMONA         NOT AVBL
WILDWOOD*      PTSUNNY   84  69  60 SW14      30.03F
MILLVILLE      CLOUDY    84  65  52 W14G22    30.01F
WRIGHTSTOWN    PTSUNNY   81  65  58 W8        29.94F
MOUNT HOLLY    CLOUDY    82  62  50 SW8       29.97F
TRENTON        PTSUNNY   80  63  55 W10       29.97F

$$
NJZ001>014-291800-
NORTHERN NEW JERSEY

CITY           SKY/WX    TMP DP  RH WIND       PRES   REMARKS
SUSSEX         CLOUDY    78  61  55 NW7       29.95F
ANDOVER*       NOT AVBL
MORRISTOWN     MOSUNNY   81  63  54 NW12G20   29.95F
NEWARK         CLOUDY    84  61  45 W16G23    29.94F
TETERBORO      CLOUDY    80  63  55 W12       29.93F
CALDWELL       MOSUNNY   80  61  52 W13G23    29.95F
SOMERVILLE     PTSUNNY   80  62  54 W8        29.95F
ALLAIRE*       MOSUNNY   83  64  52 W10G16    29.96F
TOMS RIVER*    MOSUNNY   84  63  49 VRB7G20   29.97F

$$
PAZ043-044-047-054-055-060>062-066>071-291800-
EASTERN PENNSYLVANIA

CITY           SKY/WX    TMP DP  RH WIND       PRES   REMARKS
PHILADELPHIA   CLOUDY    81  62  52 SW14      29.98F
NORTH PHILA    CLOUDY    82  65  56 W9        29.99F
BLUE BELL*     CLOUDY    79  63  57 W9        30.01S
DOYLESTOWN     CLOUDY    80  65  59 W8        29.98F
QUAKERTOWN*    PTSUNNY   77  64  65 W6        30.02R
PERKASIE*      FAIR      77  64  65 W9        30.01S
POTTSTOWN      CLOUDY    80  63  55 W8        30.01S
LANCASTER      CLOUDY    79  67  66 W10       30.03R
COATESVILLE    MOSUNNY   79  63  57 W9        30.04R
READING        MOSUNNY   80  63  55 W18G26    30.01R
ALLENTOWN      CLOUDY    78  63  59 W12       30.00F
MOUNT POCONO   CLOUDY    69  60  73 W13G21    30.02F
HAZLETON       CLOUDY    70  61  73 W5        30.09R
LEHIGHTON      FAIR      77  59  53 W9G20     30.02R
WILKES BARRE   CLOUDY    71  61  70 W6        30.01R

$$
DEZALL-MDZ008-012-015-019-020-291800-
DELAWARE AND EASTERN MARYLAND

CITY           SKY/WX    TMP DP  RH WIND       PRES   REMARKS
WILMINGTON     CLOUDY    81  65  58 SW13G21   30.01F
DOVER          CLOUDY    84  82  95 SW16      30.00F HX 100
GEORGETOWN     MOSUNNY   88  62  41 SW10G21   30.05F
EASTON           N/A     84  66  54 SW14      30.08F
ABERDEEN       CLOUDY    80  65  58 SW15      30.02F
OCEAN CITY     CLOUDY    84  70  62 W9G17     30.07F
WALLOPS ISLAND CLOUDY    82  74  76 W13       30.09F
CAMBRIDGE      SUNNY     86  66  51 SW8       30.06F
SALISBURY      PTSUNNY   83  72  69 SW14      30.07F

$$
PAZ001-021-NYZ056-072-MDZ011-DCZ001-291800-
OTHER NEARBY LOCATIONS

CITY           SKY/WX    TMP DP  RH WIND       PRES   REMARKS
HARRISBURG     CLOUDY    76  66  71 NW6       30.03R
STATE COLLEGE  MOSUNNY   73  61  64 W13G18    30.07R
WILLIAMSPORT   PTSUNNY   68  59  73 W6        30.03R
BINGHAMTON     CLOUDY    63  52  67 NW10      30.02F
NEW YORK CITY  MOSUNNY   83  62  49 MISG      29.97F
BALTIMORE      PTSUNNY   85  64  49 SW15G21   30.03F
WASHINGTON DC  PTSUNNY   86  68  54 S15       30.05F

$$




USA.gov is the U.S. government's official web portal to all federal, state and local government web resources and services.